Zurück zum Katalog

USA 461

AktivMilitärVLEO
NORAD 62360·PAYLOAD·🇺🇸 United States

Gestartet Dec 17, 2024 von Vandenberg Space Force Base

Loading…

Nächste Überflüge (nächste 24 Stunden)

TLE

VeraltetSource: Mike McCants

Epoche: Aug 21, 2026, 20:22 UTC

1 62360U 24243W   26233.84891876 0.00000000  00000-0  00000-0 0    02
2 62360  70.0200 132.1491 0002000  44.4988 315.5011 14.96713500    00

Verfolge USA 461 in Echtzeit mit AllMySat

Download on the App Store